Location: Civry
(47.2902°N, 4.6156°E)
Time: 16:59:15
(UTC+00:00)

GEOS 3 Rocket - Pass Details

Date: 09 April 2020
Orbit: 774 x 845 km, 115.0° (Epoch: 25 May)

Event Time Altitude Azimuth Distance (km) Brightness Sun altitude
Exits shadow 19:27:23 - 160° (SSE) 2,849 6.0 -11.2°
Reaches altitude 10° 19:28:40 10° 163° (SSE) 2,352 5.6 -11.4°
Maximum altitude 19:33:34 47° 237° (WSW) 1,062 4.5 -12.1°
Drops below altitude 10° 19:38:36 10° 311° (NW) 2,410 7.4 -12.9°
Sets 19:41:01 0° 317° (NW) 3,357 8.3 -13.2°
